Location: Fours
(44.3167°N, 6.7000°E)
Time: 17:02:37
(UTC+00:00)

Cosmos 1535 Rocket - Visible Passes

Search period start: 16 April 2021 00:00
Search period end: 26 April 2021 00:00
Orbit: 947 x 1005 km, 83.0° (Epoch: 16 April)

Date Brightness Start Highest point End Pass type
(mag) Time Alt. Az. Time Alt. Az. Time Alt. Az.
16 Apr 7.1 01:13:51 10° NNE 01:17:08 15° ENE 01:20:24 10° E visible
16 Apr 4.4 02:57:17 10° N 03:03:27 89° E 03:09:36 10° S visible
17 Apr 6.4 01:38:15 10° NNE 01:43:15 26° ENE 01:48:15 10° SE visible
17 Apr 4.6 03:23:04 10° NNW 03:28:58 52° W 03:34:54 10° SSW visible
18 Apr 5.5 02:03:20 10° N 02:09:10 44° ENE 02:15:01 10° SSE visible
18 Apr 5.3 03:49:09 10° NNW 03:54:19 29° W 03:59:30 10° SW visible
19 Apr 7.1 00:45:51 10° NE 00:48:26 13° ENE 00:51:00 10° E visible
19 Apr 4.5 02:28:45 10° N 02:34:54 78° E 02:41:04 10° SSE visible
20 Apr 6.5 01:09:54 10° NNE 01:14:36 22° ENE 01:19:19 10° ESE visible
20 Apr 4.5 02:54:26 10° NNW 03:00:28 60° W 03:06:16 11° S visible
21 Apr 5.7 01:34:52 10° N 01:40:34 39° ENE 01:46:16 10° SE visible
21 Apr 5.1 03:20:27 10° NNW 03:25:52 34° W 03:30:53 12° SSW visible
22 Apr 7.1 00:18:13 10° NE 00:19:43 11° ENE 00:21:13 10° ENE visible
22 Apr 4.7 02:00:13 10° N 02:06:21 68° E 02:11:01 18° SSE visible
22 Apr 5.8 03:46:58 10° NW 03:51:05 19° W 03:55:13 10° SW visible
23 Apr 6.6 00:41:36 10° NNE 00:45:57 20° ENE 00:50:19 10° ESE visible
23 Apr 4.4 02:25:51 10° NNW 02:31:57 70° W 02:35:51 24° S visible
24 Apr 5.8 01:06:26 10° N 01:11:58 34° ENE 01:16:08 16° SE visible
24 Apr 5.0 02:51:46 10° NNW 02:57:23 39° W 03:00:47 22° SW visible
25 Apr 4.9 01:31:43 10° N 01:37:47 59° E 01:41:08 27° SSE visible
25 Apr 5.7 03:18:07 10° NW 03:22:40 22° W 03:25:46 15° WSW visible
